Powrót do katalogu

NOAA 16 DEB

AktywnySSO
NORAD 42385·DEBRIS·🇺🇸 United States

Wystrzelony Sep 21, 2000 z Vandenberg Space Force Base

Loading…

Następne Przeloty (najbliższe 24 godziny)

TLE

ŚwieżeSource: Space-Track

Epoka: Sep 13, 2026, 22:51 UTC

1 42385U 00055SD  26256.95266206  .00002993  00000-0  10423-2 0  9994
2 42385  98.6464 336.8856 0004955 295.6655  64.4019 14.36141756540372

Śledź NOAA 16 DEB w czasie rzeczywistym z AllMySat

Download on the App Store